User: anonymous   Login
Location: La Coruña
(43.3623°N, 8.4115°W)
Time: 22:21:28
(UTC+01:00)
Language:

STARLINK-1103 - Orbit

View from above orbital plane
View from above orbital plane
View from above satellite
View from above satellite

Ground track
Ground track

The orbit data is extracted from the following two-line orbital elements,

1 44921U 20001H   20088.58336806  .00009537  00000-0  67282-3 0  9992
2 44921  53.0004  17.5770 0002245  68.4844 340.2651 15.05578864 12483
Epoch (UTC): 28 March 2020 14:00:03
Eccentricity: 0.0002245
inclination: 53.0004°
perigee height: 548 km
apogee height: 551 km
right ascension of ascending node: 17.5770°
argument of perigee: 68.4844°
revolutions per day: 15.05578864
mean anomaly at epoch: 340.2651°
orbit number at epoch: 1248

The dashed part of the orbit path shows where the satellite is in the earth's shadow,  

DLR